Tracking 19795 objects as of 20-Jul-2019
HD Live streaming from Space Station
objects crossing your sky now

BEESAT-4

Track BEESAT-4 now!
10-day predictions
BEESAT-4 is classified as:


NORAD ID: 41619
Int'l Code: 2016-040W
Perigee: 496.8 km
Apogee: 510.0 km
Inclination: 97.4 °
Period: 94.5 minutes
Semi major axis: 6874 km
RCS: Unknown
Launch date: June 22, 2016
Source: Germany (GER)
Launch site: SRIHARIKOTA (SRI)

Uplink (MHz):
Downlink (MHz): 435.950
Beacon (MHz): 435.950
Mode: 4800bps GMSK CW
Call sign: DP0BEH
Status: Active

aabbcc
Your satellite tracking list
Your tracking list is empty




NASA's NSSDC Master Catalog

Two Line Element Set (TLE):
1 41619U 16040W   19200.65479572  .00000724  00000-0  33548-4 0  9999
2 41619  97.3656 262.2996 0009570 275.4291  84.5854 15.23174371158570
Source of the keplerian elements: AFSPC